Terminal Aerodrome Forecast
Issued by NWS

Home | Current Version | Previous Version | Text Only | Print | Product List | Glossary On
Versions: 1 2 3 4 5 6 7 8 9 10 11 12 13 14
000
FTUS44 KEPZ 281100
TAFLRU
TAF
KLRU 281133Z 2812/2912 33005KT P6SM FEW120
     FM282100 30006KT P6SM FEW080=

USA.gov is the U.S. government's official web portal to all federal, state and local government web resources and services.